Year,Month,Day,Hour,Minute,Value (Times are PST for temperature in C)
2016,08,13,00,00,19.70
2016,08,13,00,01,19.70
2016,08,13,00,02,19.70
2016,08,13,00,03,19.70
2016,08,13,00,04,19.70
2016,08,13,00,05,19.70
2016,08,13,00,06,19.70
2016,08,13,00,07,19.70
2016,08,13,00,08,19.70
2016,08,13,00,09,19.70
2016,08,13,00,10,19.70
2016,08,13,00,11,19.60
2016,08,13,00,12,19.60
2016,08,13,00,13,19.60
2016,08,13,00,14,19.60
2016,08,13,00,15,19.50
2016,08,13,00,16,19.50
2016,08,13,00,17,19.50
2016,08,13,00,18,19.40
2016,08,13,00,19,19.50
2016,08,13,00,20,19.40
2016,08,13,00,21,19.40
2016,08,13,00,22,19.40
2016,08,13,00,23,19.40
2016,08,13,00,24,19.40
2016,08,13,00,25,19.40
2016,08,13,00,26,19.30
2016,08,13,00,27,19.30
2016,08,13,00,28,19.30
2016,08,13,00,29,19.30
2016,08,13,00,30,19.20
2016,08,13,00,31,19.20
2016,08,13,00,32,19.10
2016,08,13,00,33,19.00
2016,08,13,00,34,19.00
2016,08,13,00,35,19.00
2016,08,13,00,36,18.90
2016,08,13,00,37,18.90
2016,08,13,00,38,18.80
2016,08,13,00,39,18.80
2016,08,13,00,40,18.80
2016,08,13,00,41,18.80
2016,08,13,00,42,18.80
2016,08,13,00,43,18.70
2016,08,13,00,44,18.70
2016,08,13,00,45,18.70
2016,08,13,00,46,18.70
2016,08,13,00,47,18.70
2016,08,13,00,48,18.70
2016,08,13,00,49,18.70
2016,08,13,00,50,18.70
2016,08,13,00,51,18.60
2016,08,13,00,52,18.60
2016,08,13,00,53,18.70
2016,08,13,00,54,18.70
2016,08,13,00,55,18.80
2016,08,13,00,56,18.80
2016,08,13,00,57,18.80
2016,08,13,00,58,18.80
2016,08,13,00,59,18.80
2016,08,13,01,00,18.80
2016,08,13,01,01,18.80
2016,08,13,01,02,18.80
2016,08,13,01,03,18.80
2016,08,13,01,04,18.80
2016,08,13,01,05,18.80
2016,08,13,01,06,18.80
2016,08,13,01,07,18.80
2016,08,13,01,08,18.80
2016,08,13,01,09,18.80
2016,08,13,01,10,18.80
2016,08,13,01,11,18.70
2016,08,13,01,12,18.80
2016,08,13,01,13,18.80
2016,08,13,01,14,18.80
2016,08,13,01,15,18.70
2016,08,13,01,16,18.70
2016,08,13,01,17,18.70
2016,08,13,01,18,18.70
2016,08,13,01,19,18.70
2016,08,13,01,20,18.70
2016,08,13,01,21,18.70
2016,08,13,01,22,18.70
2016,08,13,01,23,18.60
2016,08,13,01,24,18.70
2016,08,13,01,25,18.70
2016,08,13,01,26,18.70
2016,08,13,01,27,18.70
2016,08,13,01,28,18.70
2016,08,13,01,29,18.70
2016,08,13,01,30,18.70
2016,08,13,01,31,18.70
2016,08,13,01,32,18.70
2016,08,13,01,33,18.70
2016,08,13,01,34,18.70
2016,08,13,01,35,18.60
2016,08,13,01,36,18.60
2016,08,13,01,37,18.60
2016,08,13,01,38,18.60
2016,08,13,01,39,18.60
2016,08,13,01,40,18.60
2016,08,13,01,41,18.50
2016,08,13,01,42,18.50
2016,08,13,01,43,18.50
2016,08,13,01,44,18.50
2016,08,13,01,45,18.40
2016,08,13,01,46,18.40
2016,08,13,01,47,18.40
2016,08,13,01,48,18.40
2016,08,13,01,49,18.40
2016,08,13,01,50,18.40
2016,08,13,01,51,18.40
2016,08,13,01,52,18.40
2016,08,13,01,53,18.30
2016,08,13,01,54,18.30
2016,08,13,01,55,18.30
2016,08,13,01,56,18.30
2016,08,13,01,57,18.20
2016,08,13,01,58,18.20
2016,08,13,01,59,18.20
2016,08,13,02,00,18.10
2016,08,13,02,01,18.10
2016,08,13,02,02,18.10
2016,08,13,02,03,18.00
2016,08,13,02,04,18.00
2016,08,13,02,05,18.00
2016,08,13,02,06,17.90
2016,08,13,02,07,17.90
2016,08,13,02,08,17.90
2016,08,13,02,09,17.80
2016,08,13,02,10,17.80
2016,08,13,02,11,17.70
2016,08,13,02,12,17.70
2016,08,13,02,13,17.70
2016,08,13,02,14,17.70
2016,08,13,02,15,17.70
2016,08,13,02,16,17.70
2016,08,13,02,17,17.70
2016,08,13,02,18,17.70
2016,08,13,02,19,17.70
2016,08,13,02,20,17.70
2016,08,13,02,21,17.70
2016,08,13,02,22,17.70
2016,08,13,02,23,17.70
2016,08,13,02,24,17.70
2016,08,13,02,25,17.70
2016,08,13,02,26,17.70
2016,08,13,02,27,17.70
2016,08,13,02,28,17.70
2016,08,13,02,29,17.70
2016,08,13,02,30,17.70
2016,08,13,02,31,17.70
2016,08,13,02,32,17.70
2016,08,13,02,33,17.70
2016,08,13,02,34,17.70
2016,08,13,02,35,17.70
2016,08,13,02,36,17.70
2016,08,13,02,37,17.70
2016,08,13,02,38,17.70
2016,08,13,02,39,17.70
2016,08,13,02,40,17.70
2016,08,13,02,41,17.70
2016,08,13,02,42,17.70
2016,08,13,02,43,17.60
2016,08,13,02,44,17.60
2016,08,13,02,45,17.60
2016,08,13,02,46,17.50
2016,08,13,02,47,17.50
2016,08,13,02,48,17.50
2016,08,13,02,49,17.50
2016,08,13,02,50,17.50
2016,08,13,02,51,17.50
2016,08,13,02,52,17.50
2016,08,13,02,53,17.50
2016,08,13,02,54,17.40
2016,08,13,02,55,17.40
2016,08,13,02,56,17.40
2016,08,13,02,57,17.40
2016,08,13,02,58,17.30
2016,08,13,02,59,17.30
2016,08,13,03,00,17.30
2016,08,13,03,01,17.30
2016,08,13,03,02,17.30
2016,08,13,03,03,17.30
2016,08,13,03,04,17.30
2016,08,13,03,05,17.30
2016,08,13,03,06,17.20
2016,08,13,03,07,17.20
2016,08,13,03,08,17.20
2016,08,13,03,09,17.20
2016,08,13,03,10,17.20
2016,08,13,03,11,17.20
2016,08,13,03,12,17.20
2016,08,13,03,13,17.20
2016,08,13,03,14,17.20
2016,08,13,03,15,17.20
2016,08,13,03,16,17.20
2016,08,13,03,17,17.10
2016,08,13,03,18,17.10
2016,08,13,03,19,17.10
2016,08,13,03,20,17.10
2016,08,13,03,21,17.10
2016,08,13,03,22,17.10
2016,08,13,03,23,17.10
2016,08,13,03,24,17.10
2016,08,13,03,25,17.10
2016,08,13,03,26,17.10
2016,08,13,03,27,17.10
2016,08,13,03,28,17.10
2016,08,13,03,29,17.00
2016,08,13,03,30,17.00
2016,08,13,03,31,17.00
2016,08,13,03,32,17.00
2016,08,13,03,33,17.00
2016,08,13,03,34,17.00
2016,08,13,03,35,17.10
2016,08,13,03,36,17.10
2016,08,13,03,37,17.10
2016,08,13,03,38,17.10
2016,08,13,03,39,17.10
2016,08,13,03,40,17.10
2016,08,13,03,41,17.00
2016,08,13,03,42,17.00
2016,08,13,03,43,17.00
2016,08,13,03,44,17.00
2016,08,13,03,45,17.00
2016,08,13,03,46,17.00
2016,08,13,03,47,16.90
2016,08,13,03,48,16.90
2016,08,13,03,49,16.90
2016,08,13,03,50,16.90
2016,08,13,03,51,16.90
2016,08,13,03,52,16.90
2016,08,13,03,53,16.90
2016,08,13,03,54,16.90
2016,08,13,03,55,16.90
2016,08,13,03,56,16.90
2016,08,13,03,57,16.90
2016,08,13,03,58,16.90
2016,08,13,03,59,16.90
2016,08,13,04,00,16.90
2016,08,13,04,01,16.80
2016,08,13,04,02,16.80
2016,08,13,04,03,16.80
2016,08,13,04,04,16.80
2016,08,13,04,05,16.80
2016,08,13,04,06,16.80
2016,08,13,04,07,16.70
2016,08,13,04,08,16.70
2016,08,13,04,09,16.70
2016,08,13,04,10,16.70
2016,08,13,04,11,16.70
2016,08,13,04,12,16.60
2016,08,13,04,13,16.60
2016,08,13,04,14,16.60
2016,08,13,04,15,16.70
2016,08,13,04,16,16.70
2016,08,13,04,17,16.70
2016,08,13,04,18,16.70
2016,08,13,04,19,16.70
2016,08,13,04,20,16.70
2016,08,13,04,21,16.70
2016,08,13,04,22,16.70
2016,08,13,04,23,16.70
2016,08,13,04,24,16.70
2016,08,13,04,25,16.70
2016,08,13,04,26,16.70
2016,08,13,04,27,16.70
2016,08,13,04,28,16.70
2016,08,13,04,29,16.70
2016,08,13,04,30,16.70
2016,08,13,04,31,16.70
2016,08,13,04,32,16.70
2016,08,13,04,33,16.70
2016,08,13,04,34,16.60
2016,08,13,04,35,16.60
2016,08,13,04,36,16.60
2016,08,13,04,37,16.60
2016,08,13,04,38,16.60
2016,08,13,04,39,16.60
2016,08,13,04,40,16.60
2016,08,13,04,41,16.60
2016,08,13,04,42,16.50
2016,08,13,04,43,16.50
2016,08,13,04,44,16.50
2016,08,13,04,45,16.40
2016,08,13,04,46,16.40
2016,08,13,04,47,16.40
2016,08,13,04,48,16.40
2016,08,13,04,49,16.40
2016,08,13,04,50,16.30
2016,08,13,04,51,16.30
2016,08,13,04,52,16.30
2016,08,13,04,53,16.30
2016,08,13,04,54,16.20
2016,08,13,04,55,16.20
2016,08,13,04,56,16.20
2016,08,13,04,57,16.20
2016,08,13,04,58,16.20
2016,08,13,04,59,16.20
2016,08,13,05,00,16.20
2016,08,13,05,01,16.30
2016,08,13,05,02,16.30
2016,08,13,05,03,16.30
2016,08,13,05,04,16.30
2016,08,13,05,05,16.30
2016,08,13,05,06,16.30
2016,08,13,05,07,16.30
2016,08,13,05,08,16.30
2016,08,13,05,09,16.30
2016,08,13,05,10,16.30
2016,08,13,05,11,16.20
2016,08,13,05,12,16.20
2016,08,13,05,13,16.20
2016,08,13,05,14,16.20
2016,08,13,05,15,16.20
2016,08,13,05,16,16.20
2016,08,13,05,17,16.10
2016,08,13,05,18,16.10
2016,08,13,05,19,16.10
2016,08,13,05,20,16.10
2016,08,13,05,21,16.10
2016,08,13,05,22,16.10
2016,08,13,05,23,16.00
2016,08,13,05,24,16.00
2016,08,13,05,25,16.00
2016,08,13,05,26,16.00
2016,08,13,05,27,16.00
2016,08,13,05,28,16.00
2016,08,13,05,29,16.00
2016,08,13,05,30,16.00
2016,08,13,05,31,15.90
2016,08,13,05,32,15.90
2016,08,13,05,33,15.90
2016,08,13,05,34,15.90
2016,08,13,05,35,15.90
2016,08,13,05,36,15.90
2016,08,13,05,37,15.80
2016,08,13,05,38,15.80
2016,08,13,05,39,15.80
2016,08,13,05,40,15.80
2016,08,13,05,41,15.80
2016,08,13,05,42,15.80
2016,08,13,05,43,15.80
2016,08,13,05,44,15.80
2016,08,13,05,45,15.70
2016,08,13,05,46,15.70
2016,08,13,05,47,15.70
2016,08,13,05,48,15.70
2016,08,13,05,49,15.70
2016,08,13,05,50,15.70
2016,08,13,05,51,15.70
2016,08,13,05,52,15.70
2016,08,13,05,53,15.60
2016,08,13,05,54,15.60
2016,08,13,05,55,15.60
2016,08,13,05,56,15.60
2016,08,13,05,57,15.60
2016,08,13,05,58,15.60
2016,08,13,05,59,15.50
2016,08,13,06,00,15.50
2016,08,13,06,01,15.50
2016,08,13,06,02,15.50
2016,08,13,06,03,15.40
2016,08,13,06,04,15.40
2016,08,13,06,05,15.40
2016,08,13,06,06,15.40
2016,08,13,06,07,15.40
2016,08,13,06,08,15.40
2016,08,13,06,09,15.40
2016,08,13,06,10,15.40
2016,08,13,06,11,15.40
2016,08,13,06,12,15.40
2016,08,13,06,13,15.40
2016,08,13,06,14,15.40
2016,08,13,06,15,15.40
2016,08,13,06,16,15.30
2016,08,13,06,17,15.30
2016,08,13,06,18,15.40
2016,08,13,06,19,15.40
2016,08,13,06,20,15.40
2016,08,13,06,21,15.40
2016,08,13,06,22,15.40
2016,08,13,06,23,15.40
2016,08,13,06,24,15.40
2016,08,13,06,25,15.40
2016,08,13,06,26,15.40
2016,08,13,06,27,15.40
2016,08,13,06,28,15.40
2016,08,13,06,29,15.40
2016,08,13,06,30,15.40
2016,08,13,06,31,15.40
2016,08,13,06,32,15.30
2016,08,13,06,33,15.30
2016,08,13,06,34,15.30
2016,08,13,06,35,15.30
2016,08,13,06,36,15.30
2016,08,13,06,37,15.30
2016,08,13,06,38,15.30
2016,08,13,06,39,15.30
2016,08,13,06,40,15.30
2016,08,13,06,41,15.30
2016,08,13,06,42,15.30
2016,08,13,06,43,15.30
2016,08,13,06,44,15.30
2016,08,13,06,45,15.30
2016,08,13,06,46,15.30
2016,08,13,06,47,15.30
2016,08,13,06,48,15.30
2016,08,13,06,49,15.30
2016,08,13,06,50,15.30
2016,08,13,06,51,15.30
2016,08,13,06,52,15.30
2016,08,13,06,53,15.30
2016,08,13,06,54,15.30
2016,08,13,06,55,15.30
2016,08,13,06,56,15.30
2016,08,13,06,57,15.30
2016,08,13,06,58,15.30
2016,08,13,06,59,15.30
2016,08,13,07,00,15.30
2016,08,13,07,01,15.30
2016,08,13,07,02,15.30
2016,08,13,07,03,15.30
2016,08,13,07,04,15.30
2016,08,13,07,05,15.30
2016,08,13,07,06,15.40
2016,08,13,07,07,15.40
2016,08,13,07,08,15.40
2016,08,13,07,09,15.40
2016,08,13,07,10,15.50
2016,08,13,07,11,15.50
2016,08,13,07,12,15.50
2016,08,13,07,13,15.50
2016,08,13,07,14,15.50
2016,08,13,07,15,15.50
2016,08,13,07,16,15.60
2016,08,13,07,17,15.60
2016,08,13,07,18,15.60
2016,08,13,07,19,15.60
2016,08,13,07,20,15.60
2016,08,13,07,21,15.60
2016,08,13,07,22,15.60
2016,08,13,07,23,15.60
2016,08,13,07,24,15.70
2016,08,13,07,25,15.70
2016,08,13,07,26,15.70
2016,08,13,07,27,15.70
2016,08,13,07,28,15.80
2016,08,13,07,29,15.80
2016,08,13,07,30,15.90
2016,08,13,07,31,15.90
2016,08,13,07,32,16.00
2016,08,13,07,33,16.00
2016,08,13,07,34,16.00
2016,08,13,07,35,16.10
2016,08,13,07,36,16.10
2016,08,13,07,37,16.20
2016,08,13,07,38,16.20
2016,08,13,07,39,16.30
2016,08,13,07,40,16.30
2016,08,13,07,41,16.30
2016,08,13,07,42,16.40
2016,08,13,07,43,16.40
2016,08,13,07,44,16.50
2016,08,13,07,45,16.50
2016,08,13,07,46,16.50
2016,08,13,07,47,16.60
2016,08,13,07,48,16.60
2016,08,13,07,49,16.60
2016,08,13,07,50,16.70
2016,08,13,07,51,16.70
2016,08,13,07,52,16.70
2016,08,13,07,53,16.80
2016,08,13,07,54,16.80
2016,08,13,07,55,16.80
2016,08,13,07,56,16.80
2016,08,13,07,57,16.80
2016,08,13,07,58,16.90
2016,08,13,07,59,16.90
2016,08,13,08,00,16.90
2016,08,13,08,01,17.00
2016,08,13,08,02,17.00
2016,08,13,08,03,17.00
2016,08,13,08,04,17.00
2016,08,13,08,05,17.00
2016,08,13,08,06,17.00
2016,08,13,08,07,17.00
2016,08,13,08,08,16.90
2016,08,13,08,09,16.90
2016,08,13,08,10,16.90
2016,08,13,08,11,17.00
2016,08,13,08,12,17.00
2016,08,13,08,13,17.00
2016,08,13,08,14,17.00
2016,08,13,08,15,17.10
2016,08,13,08,16,17.10
2016,08,13,08,17,17.20
2016,08,13,08,18,17.20
2016,08,13,08,19,17.30
2016,08,13,08,20,17.30
2016,08,13,08,21,17.40
2016,08,13,08,22,17.40
2016,08,13,08,23,17.50
2016,08,13,08,24,17.50
2016,08,13,08,25,17.60
2016,08,13,08,26,17.60
2016,08,13,08,27,17.60
2016,08,13,08,28,17.60
2016,08,13,08,29,17.70
2016,08,13,08,30,17.70
2016,08,13,08,31,17.70
2016,08,13,08,32,17.80
2016,08,13,08,33,17.80
2016,08,13,08,34,17.80
2016,08,13,08,35,17.80
2016,08,13,08,36,17.90
2016,08,13,08,37,17.90
2016,08,13,08,38,18.00
2016,08,13,08,39,18.00
2016,08,13,08,40,18.00
2016,08,13,08,41,17.90
2016,08,13,08,42,17.90
2016,08,13,08,43,17.90
2016,08,13,08,44,17.90
2016,08,13,08,45,17.90
2016,08,13,08,46,17.90
2016,08,13,08,47,17.90
2016,08,13,08,48,17.90
2016,08,13,08,49,17.90
2016,08,13,08,50,17.90
2016,08,13,08,51,18.00
2016,08,13,08,52,18.10
2016,08,13,08,53,18.10
2016,08,13,08,54,18.20
2016,08,13,08,55,18.30
2016,08,13,08,56,18.30
2016,08,13,08,57,18.40
2016,08,13,08,58,18.50
2016,08,13,08,59,18.60
2016,08,13,09,00,18.60
2016,08,13,09,01,18.70
2016,08,13,09,02,18.80
2016,08,13,09,03,18.80
2016,08,13,09,04,18.90
2016,08,13,09,05,19.00
2016,08,13,09,06,19.00
2016,08,13,09,07,19.10
2016,08,13,09,08,19.10
2016,08,13,09,09,19.10
2016,08,13,09,10,19.20
2016,08,13,09,11,19.20
2016,08,13,09,12,19.10
2016,08,13,09,13,19.10
2016,08,13,09,14,19.10
2016,08,13,09,15,19.10
2016,08,13,09,16,19.10
2016,08,13,09,17,19.10
2016,08,13,09,18,19.10
2016,08,13,09,19,19.10
2016,08,13,09,20,19.10
2016,08,13,09,21,19.20
2016,08,13,09,22,19.20
2016,08,13,09,23,19.30
2016,08,13,09,24,19.40
2016,08,13,09,25,19.40
2016,08,13,09,26,19.30
2016,08,13,09,27,19.40
2016,08,13,09,28,19.40
2016,08,13,09,29,19.40
2016,08,13,09,30,19.50
2016,08,13,09,31,19.60
2016,08,13,09,32,19.60
2016,08,13,09,33,19.70
2016,08,13,09,34,19.70
2016,08,13,09,35,19.80
2016,08,13,09,36,19.90
2016,08,13,09,37,19.90
2016,08,13,09,38,20.00
2016,08,13,09,39,20.10
2016,08,13,09,40,20.10
2016,08,13,09,41,20.20
2016,08,13,09,42,20.30
2016,08,13,09,43,20.30
2016,08,13,09,44,20.30
2016,08,13,09,45,20.30
2016,08,13,09,46,20.40
2016,08,13,09,47,20.40
2016,08,13,09,48,20.40
2016,08,13,09,49,20.40
2016,08,13,09,50,20.40
2016,08,13,09,51,20.30
2016,08,13,09,52,20.30
2016,08,13,09,53,20.30
2016,08,13,09,54,20.40
2016,08,13,09,55,20.40
2016,08,13,09,56,20.50
2016,08,13,09,57,20.60
2016,08,13,09,58,20.60
2016,08,13,09,59,20.60
2016,08,13,10,00,20.60
2016,08,13,10,01,20.60
2016,08,13,10,02,20.60
2016,08,13,10,03,20.60
2016,08,13,10,04,20.50
2016,08,13,10,05,20.50
2016,08,13,10,06,20.50
2016,08,13,10,07,20.50
2016,08,13,10,08,20.60
2016,08,13,10,09,20.60
2016,08,13,10,10,20.60
2016,08,13,10,11,20.70
2016,08,13,10,12,20.80
2016,08,13,10,13,20.80
2016,08,13,10,14,20.80
2016,08,13,10,15,20.90
2016,08,13,10,16,20.90
2016,08,13,10,17,20.80
2016,08,13,10,18,20.80
2016,08,13,10,19,20.80
2016,08,13,10,20,20.80
2016,08,13,10,21,20.80
2016,08,13,10,22,20.80
2016,08,13,10,23,20.90
2016,08,13,10,24,20.90
2016,08,13,10,25,21.00
2016,08,13,10,26,21.10
2016,08,13,10,27,21.20
2016,08,13,10,28,21.20
2016,08,13,10,29,21.30
2016,08,13,10,30,21.30
2016,08,13,10,31,21.30
2016,08,13,10,32,21.30
2016,08,13,10,33,21.20
2016,08,13,10,34,21.20
2016,08,13,10,35,21.20
2016,08,13,10,36,21.10
2016,08,13,10,37,21.10
2016,08,13,10,38,21.10
2016,08,13,10,39,21.10
2016,08,13,10,40,21.20
2016,08,13,10,41,21.30
2016,08,13,10,42,21.30
2016,08,13,10,43,21.40
2016,08,13,10,44,21.40
2016,08,13,10,45,21.50
2016,08,13,10,46,21.60
2016,08,13,10,47,21.60
2016,08,13,10,48,21.70
2016,08,13,10,49,21.70
2016,08,13,10,50,21.70
2016,08,13,10,51,21.70
2016,08,13,10,52,21.70
2016,08,13,10,53,21.80
2016,08,13,10,54,21.80
2016,08,13,10,55,21.90
2016,08,13,10,56,21.90
2016,08,13,10,57,21.90
2016,08,13,10,58,21.90
2016,08,13,10,59,21.90
2016,08,13,11,00,21.80
2016,08,13,11,01,21.80
2016,08,13,11,02,21.80
2016,08,13,11,03,21.80
2016,08,13,11,04,21.80
2016,08,13,11,05,21.90
2016,08,13,11,06,22.00
2016,08,13,11,07,22.10
2016,08,13,11,08,22.10
2016,08,13,11,09,22.20
2016,08,13,11,10,22.20
2016,08,13,11,11,22.30
2016,08,13,11,12,22.30
2016,08,13,11,13,22.30
2016,08,13,11,14,22.30
2016,08,13,11,15,22.40
2016,08,13,11,16,22.40
2016,08,13,11,17,22.40
2016,08,13,11,18,22.50
2016,08,13,11,19,22.60
2016,08,13,11,20,22.60
2016,08,13,11,21,22.60
2016,08,13,11,22,22.60
2016,08,13,11,23,22.60
2016,08,13,11,24,22.60
2016,08,13,11,25,22.50
2016,08,13,11,26,22.50
2016,08,13,11,27,22.50
2016,08,13,11,28,22.60
2016,08,13,11,29,22.60
2016,08,13,11,30,22.60
2016,08,13,11,31,22.70
2016,08,13,11,32,22.70
2016,08,13,11,33,22.70
2016,08,13,11,34,22.70
2016,08,13,11,35,22.70
2016,08,13,11,36,22.70
2016,08,13,11,37,22.70
2016,08,13,11,38,22.70
2016,08,13,11,39,22.70
2016,08,13,11,40,22.70
2016,08,13,11,41,22.60
2016,08,13,11,42,22.60
2016,08,13,11,43,22.60
2016,08,13,11,44,22.60
2016,08,13,11,45,22.60
2016,08,13,11,46,22.60
2016,08,13,11,47,22.60
2016,08,13,11,48,22.50
2016,08,13,11,49,22.50
2016,08,13,11,50,22.50
2016,08,13,11,51,22.40
2016,08,13,11,52,22.40
2016,08,13,11,53,22.40
2016,08,13,11,54,22.40
2016,08,13,11,55,22.40
2016,08,13,11,56,22.40
2016,08,13,11,57,22.40
2016,08,13,11,58,22.40
2016,08,13,11,59,22.40
2016,08,13,12,00,22.40
2016,08,13,12,01,22.40
2016,08,13,12,02,22.40
2016,08,13,12,03,22.40
2016,08,13,12,04,22.50
2016,08,13,12,05,22.50
2016,08,13,12,06,22.60
2016,08,13,12,07,22.70
2016,08,13,12,08,22.70
2016,08,13,12,09,22.80
2016,08,13,12,10,22.90
2016,08,13,12,11,23.00
2016,08,13,12,12,23.00
2016,08,13,12,13,23.10
2016,08,13,12,14,23.10
2016,08,13,12,15,23.10
2016,08,13,12,16,23.20
2016,08,13,12,17,23.10
2016,08,13,12,18,23.10
2016,08,13,12,19,23.10
2016,08,13,12,20,23.10
2016,08,13,12,21,23.10
2016,08,13,12,22,23.10
2016,08,13,12,23,23.20
2016,08,13,12,24,23.20
2016,08,13,12,25,23.20
2016,08,13,12,26,23.30
2016,08,13,12,27,23.30
2016,08,13,12,28,23.40
2016,08,13,12,29,23.40
2016,08,13,12,30,23.40
2016,08,13,12,31,23.40
2016,08,13,12,32,23.40
2016,08,13,12,33,23.40
2016,08,13,12,34,23.50
2016,08,13,12,35,23.50
2016,08,13,12,36,23.60
2016,08,13,12,37,23.60
2016,08,13,12,38,23.60
2016,08,13,12,39,23.60
2016,08,13,12,40,23.60
2016,08,13,12,41,23.70
2016,08,13,12,42,23.70
2016,08,13,12,43,23.70
2016,08,13,12,44,23.70
2016,08,13,12,45,23.80
2016,08,13,12,46,23.90
2016,08,13,12,47,23.90
2016,08,13,12,48,24.00
2016,08,13,12,49,24.10
2016,08,13,12,50,24.20
2016,08,13,12,51,24.20
2016,08,13,12,52,24.20
2016,08,13,12,53,24.30
2016,08,13,12,54,24.40
2016,08,13,12,55,24.50
2016,08,13,12,56,24.60
2016,08,13,12,57,24.60
2016,08,13,12,58,24.70
2016,08,13,12,59,24.60
2016,08,13,13,00,24.60
2016,08,13,13,01,24.60
2016,08,13,13,02,24.60
2016,08,13,13,03,24.50
2016,08,13,13,04,24.50
2016,08,13,13,05,24.40
2016,08,13,13,06,24.40
2016,08,13,13,07,24.40
2016,08,13,13,08,24.40
2016,08,13,13,09,24.50
2016,08,13,13,10,24.60
2016,08,13,13,11,24.60
2016,08,13,13,12,24.50
2016,08,13,13,13,24.50
2016,08,13,13,14,24.60
2016,08,13,13,15,24.60
2016,08,13,13,16,24.70
2016,08,13,13,17,24.70
2016,08,13,13,18,24.70
2016,08,13,13,19,24.70
2016,08,13,13,20,24.80
2016,08,13,13,21,24.90
2016,08,13,13,22,24.90
2016,08,13,13,23,25.00
2016,08,13,13,24,25.10
2016,08,13,13,25,25.10
2016,08,13,13,26,25.20
2016,08,13,13,27,25.40
2016,08,13,13,28,25.40
2016,08,13,13,29,25.40
2016,08,13,13,30,25.40
2016,08,13,13,31,25.30
2016,08,13,13,32,25.40
2016,08,13,13,33,25.40
2016,08,13,13,34,25.30
2016,08,13,13,35,25.30
2016,08,13,13,36,25.30
2016,08,13,13,37,25.20
2016,08,13,13,38,25.30
2016,08,13,13,39,25.30
2016,08,13,13,40,25.30
2016,08,13,13,41,25.30
2016,08,13,13,42,25.20
2016,08,13,13,43,25.20
2016,08,13,13,44,25.30
2016,08,13,13,45,25.30
2016,08,13,13,46,25.30
2016,08,13,13,47,25.30
2016,08,13,13,48,25.30
2016,08,13,13,49,25.40
2016,08,13,13,50,25.40
2016,08,13,13,51,25.50
2016,08,13,13,52,25.50
2016,08,13,13,53,25.70
2016,08,13,13,54,25.80
2016,08,13,13,55,25.90
2016,08,13,13,56,26.00
2016,08,13,13,57,26.20
2016,08,13,13,58,26.30
2016,08,13,13,59,26.30
2016,08,13,14,00,26.30
2016,08,13,14,01,26.30
2016,08,13,14,02,26.10
2016,08,13,14,03,26.10
2016,08,13,14,04,26.00
2016,08,13,14,05,26.00
2016,08,13,14,06,25.90
2016,08,13,14,07,25.80
2016,08,13,14,08,25.80
2016,08,13,14,09,25.80
2016,08,13,14,10,25.80
2016,08,13,14,11,25.80
2016,08,13,14,12,25.80
2016,08,13,14,13,25.90
2016,08,13,14,14,25.90
2016,08,13,14,15,25.80
2016,08,13,14,16,25.80
2016,08,13,14,17,25.80
2016,08,13,14,18,25.90
2016,08,13,14,19,25.90
2016,08,13,14,20,26.00
2016,08,13,14,21,26.00
2016,08,13,14,22,26.10
2016,08,13,14,23,26.10
2016,08,13,14,24,26.10
2016,08,13,14,25,26.10
2016,08,13,14,26,26.20
2016,08,13,14,27,26.20
2016,08,13,14,28,26.20
2016,08,13,14,29,26.20
2016,08,13,14,30,26.20
2016,08,13,14,31,26.20
2016,08,13,14,32,26.20
2016,08,13,14,33,26.20
2016,08,13,14,34,26.20
2016,08,13,14,35,26.20
2016,08,13,14,36,26.10
2016,08,13,14,37,26.00
2016,08,13,14,38,25.90
2016,08,13,14,39,25.90
2016,08,13,14,40,25.80
2016,08,13,14,41,25.80
2016,08,13,14,42,25.70
2016,08,13,14,43,25.70
2016,08,13,14,44,25.70
2016,08,13,14,45,25.70
2016,08,13,14,46,25.70
2016,08,13,14,47,25.70
2016,08,13,14,48,25.80
2016,08,13,14,49,25.90
2016,08,13,14,50,25.90
2016,08,13,14,51,26.00
2016,08,13,14,52,26.10
2016,08,13,14,53,26.20
2016,08,13,14,54,26.40
2016,08,13,14,55,26.40
2016,08,13,14,56,26.50
2016,08,13,14,57,26.60
2016,08,13,14,58,26.60
2016,08,13,14,59,26.70
2016,08,13,15,00,26.70
2016,08,13,15,01,26.70
2016,08,13,15,02,26.80
2016,08,13,15,03,26.80
2016,08,13,15,04,26.90
2016,08,13,15,05,26.90
2016,08,13,15,06,26.90
2016,08,13,15,07,27.00
2016,08,13,15,08,27.00
2016,08,13,15,09,27.10
2016,08,13,15,10,27.10
2016,08,13,15,11,27.00
2016,08,13,15,12,27.00
2016,08,13,15,13,27.00
2016,08,13,15,14,27.10
2016,08,13,15,15,27.10
2016,08,13,15,16,27.20
2016,08,13,15,17,27.30
2016,08,13,15,18,27.40
2016,08,13,15,19,27.40
2016,08,13,15,20,27.50
2016,08,13,15,21,27.50
2016,08,13,15,22,27.60
2016,08,13,15,23,27.60
2016,08,13,15,24,27.60
2016,08,13,15,25,27.60
2016,08,13,15,26,27.60
2016,08,13,15,27,27.60
2016,08,13,15,28,27.60
2016,08,13,15,29,27.50
2016,08,13,15,30,27.50
2016,08,13,15,31,27.50
2016,08,13,15,32,27.40
2016,08,13,15,33,27.40
2016,08,13,15,34,27.40
2016,08,13,15,35,27.40
2016,08,13,15,36,27.40
2016,08,13,15,37,27.40
2016,08,13,15,38,27.40
2016,08,13,15,39,27.50
2016,08,13,15,40,27.50
2016,08,13,15,41,27.60
2016,08,13,15,42,27.70
2016,08,13,15,43,27.70
2016,08,13,15,44,27.70
2016,08,13,15,45,27.80
2016,08,13,15,46,27.90
2016,08,13,15,47,28.00
2016,08,13,15,48,28.10
2016,08,13,15,49,28.10
2016,08,13,15,50,28.20
2016,08,13,15,51,28.20
2016,08,13,15,52,28.20
2016,08,13,15,53,28.20
2016,08,13,15,54,28.30
2016,08,13,15,55,28.30
2016,08,13,15,56,28.30
2016,08,13,15,57,28.30
2016,08,13,15,58,28.30
2016,08,13,15,59,28.40
2016,08,13,16,00,28.40
2016,08,13,16,01,28.30
2016,08,13,16,02,28.40
2016,08,13,16,03,28.40
2016,08,13,16,04,28.50
2016,08,13,16,05,28.50
2016,08,13,16,06,28.60
2016,08,13,16,07,28.60
2016,08,13,16,08,28.60
2016,08,13,16,09,28.60
2016,08,13,16,10,28.60
2016,08,13,16,11,28.50
2016,08,13,16,12,28.60
2016,08,13,16,13,28.60
2016,08,13,16,14,28.60
2016,08,13,16,15,28.60
2016,08,13,16,16,28.60
2016,08,13,16,17,28.70
2016,08,13,16,18,28.70
2016,08,13,16,19,28.80
2016,08,13,16,20,28.80
2016,08,13,16,21,28.80
2016,08,13,16,22,28.80
2016,08,13,16,23,28.80
2016,08,13,16,24,28.80
2016,08,13,16,25,28.90
2016,08,13,16,26,28.80
2016,08,13,16,27,28.80
2016,08,13,16,28,28.80
2016,08,13,16,29,28.80
2016,08,13,16,30,28.80
2016,08,13,16,31,28.80
2016,08,13,16,32,28.80
2016,08,13,16,33,28.70
2016,08,13,16,34,28.70
2016,08,13,16,35,28.70
2016,08,13,16,36,28.70
2016,08,13,16,37,28.80
2016,08,13,16,38,28.80
2016,08,13,16,39,28.80
2016,08,13,16,40,28.80
2016,08,13,16,41,28.90
2016,08,13,16,42,28.90
2016,08,13,16,43,28.80
2016,08,13,16,44,28.80
2016,08,13,16,45,28.70
2016,08,13,16,46,28.70
2016,08,13,16,47,28.60
2016,08,13,16,48,28.60
2016,08,13,16,49,28.50
2016,08,13,16,50,28.40
2016,08,13,16,51,28.40
2016,08,13,16,52,28.40
2016,08,13,16,53,28.40
2016,08,13,16,54,28.40
2016,08,13,16,55,28.30
2016,08,13,16,56,28.30
2016,08,13,16,57,28.30
2016,08,13,16,58,28.30
2016,08,13,16,59,28.30
2016,08,13,17,00,28.30
2016,08,13,17,01,28.20
2016,08,13,17,02,28.20
2016,08,13,17,03,28.20
2016,08,13,17,04,28.30
2016,08,13,17,05,28.30
2016,08,13,17,06,28.30
2016,08,13,17,07,28.30
2016,08,13,17,08,28.40
2016,08,13,17,09,28.50
2016,08,13,17,10,28.50
2016,08,13,17,11,28.50
2016,08,13,17,12,28.50
2016,08,13,17,13,28.40
2016,08,13,17,14,28.40
2016,08,13,17,15,28.30
2016,08,13,17,16,28.20
2016,08,13,17,17,28.10
2016,08,13,17,18,28.10
2016,08,13,17,19,28.10